Location: Poprad
(49.0500°N, 20.3000°E)
Time: 07:47:39
(UTC+02:00)

Oscar 11 - Pass Details

Date: 18 April 2024
Orbit: 602 x 614 km, 97.7° (Epoch: 19 May)

Event Time Altitude Azimuth Distance (km) Brightness Sun altitude
Rises 03:39:41 0° 25° (NNE) 2,897 11.8 -18.0°
Reaches altitude 10° 03:42:18 10° 40° (NE) 1,985 10.9 -17.6°
Maximum altitude 03:45:42 22° 92° (E) 1,345 9.3 -17.2°
Drops below altitude 10° 03:49:04 10° 144° (SE) 1,967 9.6 -16.8°
Sets 03:51:38 0° 160° (SSE) 2,863 10.3 -16.5°
